Social login voor leden:

1. METAR EBOS

METAR EBOS 060150Z 06007KT CAVOK 01/M03 Q1034 NOSIG

2. TAF EBOS

TAF EBOS 060150Z 06007KT CAVOK 01/M03 Q1034 NOSIG

3. NOTAMS EBOS

Klik hier voor een overzicht van de notams.

Deze pagina promoten

Noordzee Vliegclub - Nieuwpoortsesteenweg 947 8400 Oostende - Tel 059 30 04 79 - info@nzvc.be - 

 - Copyright 2020